Temp_Advection
nan nan nan nan nan nan nan nan nan nan nan nan nan nan nan nan nan nan nan nan nan nan nan nan nan nan nan nan nan nan nan nan nan nan nan nan nan nan nan nan nan nan nan
nan -0 0 0 -0 -0 0 0 -0 -0 0 -0 -0 -0 0 0 -0 -0 -0 0 -0 0 0 0 0 0 0 0 -0 -0 -0 -0 -0 -0 -0 -0 -0 -0 -0 -0 0 0 nan
nan 0 0 0 -0 0 0 0 0 0 0 -0 -0 -0 -0 0 0 0 0 -0 0 0 0 0 0 0 0 0 0 0 0 -0 -0 -0 -0 -0 -0 -0 -0 -0 -0 -0 nan
nan -0 0 0 0 0 -0 0 -0 -0 -0 -0 -0 -0 0 0 0 0 0 0 0 0 -0 0 0 0 0 0 0 0 0 0 0 -0 -0 -0 0 -0 0 -0 -0 -0 nan
nan -0 0 0 -0 -0 -0 -0 -0 -0 -0 0 0 0 0 0 0 0 0 0 -0 -0 -0 -0 -0 0 0 0 0 0 0 0 0 0 0 -0 -0 -0 -0 0 -0 -0 nan
nan 0 0 0 0 0 -0 -0 -0 -0 -0 0 0 0 0 -0 -0 -0 -0 0 -0 -0 -0 -0 -0 -0 0 -0 0 0 0 0 0 0 0 0 -0 -0 -0 -0 0 0 nan
nan 0 0 0 0 0 0 0 -0 -0 -0 0 -0 -0 -0 -0 -0 -0 -0 -0 -0 -0 -0 -0 -0 -0 -0 -0 -0 0 -0 -0 -0 -0 0 0 0 0 -0 -0 0 0 nan
nan -0 -0 0 0 0 0 -0 -0 -0 0 -0 -0 -0 -0 -0 -0 -0 -0 -0 -0 -0 -0 -0 -0 -0 -0 -0 -0 -0 -0 -0 -0 -0 -0 0 0 0 -0 -0 -0 0 nan
nan -0 0 0 0 0 0 -0 -0 0 -0 -0 -0 -0 -0 -0 -0 -0 -0 -0 -0 -0 -0 -0 -0 -0 -0 -0 -0 -0 -0 -0 -0 -0 -0 -0 -0 -0 -0 0 -0 -0 nan
nan 0 0 0 0 -0 -0 -0 -0 0 -0 -0 -0 -0 -0 -0 -0 -0 -0 -0 -0 -0 -0 -0 -0 -0 -0 -0 -0 -0 -0 -0 -0 -0 -0 -0 -0 -0 -0 -0 -0 -0 nan
nan 0 0 0 0 -0 -0 0 0 0 -0 -0 -0 -0 -0 -0 -0 -0 -0 -0 -0 -0 -0 -0 -0 -0 -0 -0 -0 -0 -0 -0 -0 -0 -0 -0 -0 -0 -0 -0 -0 -0 nan
nan -0 0 0 -0 -0 -0 0 0 0 -0 -0 -0 -0 -0 -0 -0 -0 -0 -0 -0 -0 -0 -0 -0 -0 -0 -0 -0 -0 -0 -0 -0 -0 -0 -0 0 -0 -0 -0 -0 -0 nan
nan -0 0 0 -0 -0 0 0 0 0 -0 -0 -0 -0 -0 -0 -0 -0 -0 -0 -0 -0 -0 -0 -0 -0 -0 -0 -0 -0 -0 -0 -0 -0 -0 -0 -0 -0 -0 -0 -0 -0 nan
nan 0 0 0 -0 -0 0 0 0 0 0 -0 -0 -0 -0 -0 -0 -0 -0 -0 -0 -0 -0 -0 -0 -0 -0 -0 -0 -0 -0 -0 -0 -0 -0 -0 -0 -0 0 -0 -0 -0 nan
nan 0 0 0 -0 0 0 0 0 0 0 -0 -0 -0 -0 -0 -0 -0 -0 -0 -0 -0 -0 -0 -0 -0 -0 -0 -0 -0 -0 -0 -0 -0 -0 -0 -0 -0 -0 0 0 -0 nan
nan 0 0 -0 -0 0 0 0 0 0 0 -0 -0 -0 -0 -0 -0 -0 -0 -0 -0 -0 -0 -0 -0 -0 -0 -0 -0 -0 -0 -0 -0 -0 0 0 -0 -0 0 0 0 -0 nan
nan 0 0 -0 -0 0 0 0 0 0 0 0 0 -0 -0 -0 -0 -0 -0 -0 -0 -0 -0 -0 -0 -0 -0 -0 -0 -0 -0 -0 0 0 0 -0 -0 -0 -0 0 0 0 nan
nan 0 0 -0 0 0 0 0 0 0 0 0 0 0 -0 -0 -0 -0 -0 -0 -0 -0 -0 -0 -0 -0 -0 -0 -0 -0 -0 -0 -0 -0 -0 -0 -0 -0 -0 -0 -0 -0 nan
nan 0 0 0 0 0 0 0 0 0 0 0 0 0 0 -0 -0 -0 -0 -0 -0 0 -0 -0 -0 -0 -0 -0 -0 0 0 0 0 -0 -0 -0 -0 -0 -0 -0 -0 -0 nan
nan 0 0 0 0 0 0 0 0 0 0 0 0 0 0 0 -0 -0 0 -0 -0 -0 -0 -0 -0 -0 -0 -0 -0 -0 0 0 0 0 0 -0 -0 -0 -0 -0 -0 -0 nan
nan 0 0 0 0 0 0 0 0 0 0 0 0 0 0 0 0 0 -0 -0 -0 -0 -0 0 0 -0 -0 -0 -0 0 0 0 0 0 0 0 -0 -0 -0 -0 -0 -0 nan
nan 0 -0 -0 -0 0 0 0 0 0 0 0 0 0 0 0 0 0 -0 -0 -0 -0 -0 -0 -0 -0 -0 -0 -0 -0 -0 0 0 0 0 0 0 -0 -0 -0 -0 -0 nan
nan 0 -0 -0 0 1 0 0 0 0 0 0 0 0 0 0 -0 0 0 0 -0 -0 -0 -0 -0 -0 -0 -0 -0 -0 -0 -0 -0 -0 0 0 0 0 -0 -0 -0 -0 nan
nan -0 -0 0 0 0 0 0 0 0 0 -0 0 0 0 0 0 0 0 0 -0 0 0 0 -0 -0 -0 0 -0 -0 0 0 -0 -0 -0 -0 0 0 0 -0 -0 -0 nan
nan -0 0 0 0 0 0 0 0 0 0 0 0 0 0 0 0 0 0 -0 0 0 0 0 0 0 0 0 0 0 0 0 0 -0 -1 -0 0 0 0 0 -0 -0 nan
nan nan nan nan nan nan nan nan nan nan nan nan nan nan nan nan nan nan nan nan nan nan nan nan nan nan nan nan nan nan nan nan nan nan nan nan nan nan nan nan nan nan nan
Wind_Speed
24 22 20 17 14 13 9 9 9 9 9 9 7 7 7 6 6 6 5 5 5 5 5 5 4 5 5 6 6 6 6 6 6 6 5 4 4 6 6 8 9 8 6
27 23 20 17 16 12 10 9 8 9 8 7 7 6 5 3 3 2 1 2 4 4 4 2 1 2 2 3 4 5 6 5 5 5 5 4 5 6 5 8 8 8 6
26 23 21 18 15 12 11 9 9 7 5 3 2 2 2 3 3 4 5 5 6 6 7 7 7 7 8 7 6 5 3 5 6 5 4 4 4 5 6 7 7 8 7
25 24 21 18 14 13 12 11 7 4 2 1 1 1 2 2 3 3 4 4 5 6 7 7 7 8 8 9 10 10 10 8 7 7 6 5 4 3 4 4 6 7 7
23 22 20 17 14 13 11 8 4 1 0 1 1 2 3 3 4 4 4 4 5 6 7 7 8 8 8 9 10 11 11 12 13 12 9 8 7 6 5 6 5 6 8
23 22 19 16 13 11 10 7 4 2 1 1 2 2 2 2 3 4 5 6 6 7 8 8 9 9 8 8 9 9 10 11 12 13 12 12 10 8 8 8 9 7 8
24 21 19 16 14 12 9 6 3 2 1 1 1 2 2 3 3 4 5 6 7 7 8 9 9 10 10 10 9 9 9 9 9 10 11 11 11 10 10 11 10 10 10
23 22 19 15 14 10 7 4 2 1 1 1 2 2 3 3 4 5 6 6 7 8 9 10 11 11 11 11 11 10 9 8 8 7 5 6 7 8 10 12 9 8 8
22 20 17 15 12 9 6 4 2 1 1 2 2 3 3 4 5 6 7 7 8 9 10 11 11 12 12 12 11 10 8 7 7 7 6 4 3 3 6 7 6 6 6
21 18 16 14 11 8 6 4 2 1 1 2 2 3 4 4 6 7 8 9 10 11 11 12 12 12 12 12 11 10 8 6 5 5 4 2 2 4 5 7 8 8 10
22 19 16 13 11 8 5 4 3 1 1 2 2 3 4 5 6 8 9 10 11 12 12 12 12 12 12 11 9 8 8 7 6 4 3 1 1 4 5 4 9 10 8
25 19 16 13 11 8 6 5 3 2 2 2 2 3 4 5 6 8 9 10 11 12 12 12 12 12 11 10 10 9 9 9 7 6 4 5 5 4 6 6 6 9 11
22 19 16 14 11 9 7 5 4 2 2 2 2 3 4 5 7 8 9 10 10 10 10 11 11 10 10 10 9 9 8 8 8 9 8 8 6 6 7 5 6 5 6
22 19 18 15 12 10 7 6 4 2 1 2 2 3 4 5 7 8 8 9 9 9 10 11 11 11 11 10 9 8 7 8 9 11 11 12 11 6 3 1 2 4 2
23 20 18 15 12 10 8 6 4 3 1 1 1 2 3 5 6 7 8 9 8 9 10 10 11 12 12 10 10 9 7 8 10 11 12 14 12 8 3 2 2 1 1
23 21 18 15 12 10 8 7 5 3 1 0 1 1 3 4 6 7 8 8 8 8 10 11 12 12 12 10 9 9 7 7 9 11 13 12 10 7 6 6 5 5 4
21 20 18 15 12 10 9 6 4 3 2 1 0 1 2 3 6 6 6 6 7 8 10 11 12 13 13 10 9 8 7 6 7 9 11 12 12 11 10 9 9 8 8
22 19 17 15 12 10 9 7 6 5 3 2 1 1 2 4 5 5 5 6 7 8 9 9 10 11 11 10 9 7 6 6 6 8 10 10 11 10 11 12 13 12 11
20 18 16 15 13 11 10 8 7 5 4 2 2 2 3 3 3 4 5 6 7 8 8 8 9 9 9 10 9 7 5 5 6 6 7 8 9 10 10 12 13 13 12
20 19 17 15 14 12 11 10 8 6 5 4 3 3 3 3 3 4 5 6 7 7 8 8 9 9 9 10 9 8 7 6 7 7 7 8 8 9 10 11 14 14 13
23 21 18 15 15 12 12 10 9 7 5 4 4 4 4 3 3 4 5 6 7 7 8 9 9 9 10 10 8 9 8 8 8 8 9 10 8 8 10 11 13 13 13
22 19 18 17 14 12 12 11 9 7 6 6 5 5 4 3 3 4 5 6 7 9 10 11 11 11 12 12 11 10 3 6 5 9 13 10 9 9 11 11 13 14 12
19 19 18 15 14 14 14 12 10 8 7 6 6 6 5 5 5 5 6 8 10 11 13 13 14 13 12 12 11 7 4 3 13 5 9 8 11 11 13 13 14 15 13
17 17 16 15 16 14 15 14 11 10 8 8 7 7 6 6 6 7 9 10 12 14 15 15 14 14 13 12 12 10 9 11 5 7 7 10 13 12 13 15 15 14 13
16 14 15 15 16 15 16 14 13 12 11 9 9 9 7 8 8 9 10 12 14 15 15 15 16 15 14 13 12 12 12 12 13 13 18 13 14 16 17 17 15 15 13
14 15 17 17 15 17 16 15 14 14 13 11 11 10 9 9 10 11 13 15 17 17 17 16 16 16 15 15 14 14 14 14 15 14 17 22 22 21 17 17 15 14 13
Wind_Direction
164 162 158 154 150 155 144 133 122 114 100 90 86 86 87 86 83 83 76 74 59 52 34 16 11 13 0 6 6 11 13 11 8 7 4 360 4 3 11 20 16 21 23
157 161 158 158 161 160 148 138 125 111 108 133 123 125 117 117 128 141 221 300 285 284 278 275 338 359 345 346 345 345 346 343 335 337 341 345 353 7 16 6 12 17 20
157 158 161 163 163 158 150 137 135 139 151 163 187 228 266 284 287 288 286 289 298 304 303 298 292 289 284 285 291 293 307 296 298 299 304 311 332 5 6 3 16 16 14
159 158 163 165 163 159 151 156 159 160 176 217 257 297 304 311 310 312 316 321 326 318 315 312 307 302 296 290 282 275 276 285 290 290 287 284 277 307 317 325 357 11 6
163 163 164 165 167 164 161 161 161 166 250 319 331 336 339 345 344 344 344 341 334 330 330 328 323 316 310 301 291 285 279 270 266 267 272 272 272 283 287 280 295 317 330
164 164 166 170 171 164 165 166 171 194 198 307 333 354 4 11 10 8 4 359 353 350 347 342 335 333 328 321 313 301 289 281 278 274 266 264 267 262 265 282 276 292 296
163 164 166 172 170 169 168 171 179 199 250 327 358 30 37 40 32 25 14 3 356 354 350 342 336 333 331 326 321 316 314 311 303 287 275 267 260 263 267 286 300 274 291
168 167 170 170 167 165 167 179 190 235 303 29 44 40 43 34 29 18 16 8 357 356 352 346 340 338 336 331 326 325 326 329 337 336 311 280 270 272 274 277 290 287 300
170 174 172 169 169 171 176 191 206 220 85 75 51 35 30 24 23 19 15 9 359 357 357 351 347 345 343 335 332 332 332 342 349 3 13 40 47 268 274 266 281 314 332
171 175 172 171 175 181 186 194 205 156 89 55 47 34 27 26 24 21 11 10 4 0 358 355 354 353 350 345 351 346 345 353 350 359 14 59 286 332 318 304 291 297 302
172 175 175 180 182 188 195 192 190 157 109 61 39 39 35 28 26 19 11 9 5 2 360 358 356 356 355 354 359 359 4 4 2 351 327 333 327 26 26 313 295 291 298
173 175 181 185 189 192 193 192 177 155 108 72 53 33 29 27 22 17 11 10 5 5 4 5 7 7 2 359 2 8 9 16 14 7 340 302 284 320 332 319 291 301 303
182 181 186 189 189 190 188 183 172 151 106 66 37 26 28 24 19 16 11 7 8 10 11 13 12 13 13 11 14 17 19 22 23 21 13 359 343 340 26 353 342 41 29
185 187 194 190 193 191 187 183 176 161 123 66 29 23 22 21 15 9 6 5 12 16 19 20 18 19 20 22 22 19 17 19 22 21 23 23 18 59 95 17 72 53 44
192 197 197 195 193 190 187 187 182 171 129 75 34 14 12 14 9 1 5 10 16 24 23 24 21 22 25 26 28 30 29 27 23 18 10 10 27 41 52 55 224 13 281
194 200 195 196 193 190 191 191 184 179 166 121 29 5 4 6 359 360 7 13 20 23 24 23 22 22 23 24 28 33 37 31 20 9 4 15 20 13 9 6 3 356 316
195 198 197 198 195 190 194 195 197 199 194 212 252 337 341 355 0 1 9 11 15 18 21 19 18 19 18 15 13 20 22 17 19 12 15 19 29 32 29 18 7 350 335
200 199 199 198 198 196 198 202 207 208 215 232 263 302 337 342 347 358 4 7 8 11 15 16 16 14 12 9 2 2 4 3 2 12 14 16 23 29 28 26 21 15 9
195 200 202 200 199 198 204 209 211 215 230 246 245 254 299 330 347 352 353 1 4 2 3 2 5 8 5 1 354 344 337 332 332 342 354 2 10 17 21 20 19 15 12
193 198 201 202 203 203 208 214 218 224 235 238 238 256 287 310 331 341 346 354 355 352 349 349 351 353 352 351 346 341 321 303 301 311 327 339 344 359 5 7 11 11 10
197 197 200 204 210 212 216 220 225 232 240 237 244 259 278 294 313 334 338 340 340 336 334 335 335 338 337 337 340 333 307 291 285 292 305 316 317 334 347 348 359 2 1
201 202 208 206 208 215 221 220 228 239 245 241 250 255 265 278 296 325 329 325 326 327 325 321 319 325 326 328 334 335 324 302 287 300 299 299 303 311 330 331 338 343 344
204 208 207 214 222 219 226 227 231 244 249 249 253 253 259 271 288 297 305 314 316 317 318 318 316 316 316 320 325 327 328 310 315 300 306 298 304 304 312 319 322 328 329
209 209 214 217 221 221 232 234 237 244 252 254 253 252 261 270 274 283 296 305 314 316 313 310 309 309 310 310 311 309 302 293 305 304 305 299 298 297 303 310 312 313 311
213 212 218 221 227 228 234 237 242 247 253 257 253 251 259 264 267 278 293 304 306 307 305 303 302 303 304 302 297 293 291 289 285 279 291 292 292 295 298 302 304 302 296
227 218 224 229 231 232 235 243 247 250 254 256 254 249 257 262 268 281 292 301 307 309 307 303 299 296 294 294 292 287 286 286 286 281 281 291 297 298 297 299 300 297 292
Height
1531 1535 1538 1541 1544 1545 1546 1548 1549 1549 1550 1551 1551 1551 1551 1551 1551 1551 1551 1550 1550 1550 1549 1549 1549 1548 1548 1547 1547 1546 1546 1546 1545 1545 1544 1543 1543 1543 1543 1542 1542 1541 1541
1529 1534 1538 1541 1543 1545 1547 1548 1549 1550 1551 1551 1551 1551 1551 1551 1551 1551 1551 1550 1550 1549 1548 1548 1548 1547 1547 1547 1546 1546 1546 1546 1545 1545 1544 1544 1543 1544 1543 1543 1542 1542 1541
1530 1534 1537 1540 1543 1545 1547 1548 1549 1550 1551 1551 1551 1551 1551 1551 1551 1551 1550 1550 1549 1549 1548 1548 1547 1547 1547 1546 1546 1545 1545 1544 1544 1544 1544 1544 1544 1544 1544 1543 1542 1542 1542
1530 1534 1537 1540 1542 1545 1547 1548 1550 1551 1551 1551 1551 1551 1551 1551 1551 1550 1550 1549 1548 1548 1547 1547 1546 1546 1545 1545 1544 1544 1544 1544 1543 1543 1543 1543 1543 1543 1543 1543 1542 1542 1541
1531 1535 1538 1540 1543 1544 1547 1549 1550 1551 1551 1552 1551 1551 1551 1550 1550 1550 1549 1549 1548 1547 1547 1546 1545 1545 1544 1543 1542 1542 1542 1541 1541 1541 1542 1542 1542 1543 1542 1542 1541 1541 1541
1532 1535 1538 1541 1543 1545 1547 1549 1550 1551 1551 1551 1552 1551 1551 1551 1550 1550 1549 1548 1548 1547 1547 1546 1545 1544 1543 1542 1541 1540 1539 1539 1539 1539 1540 1540 1540 1541 1541 1541 1540 1540 1540
1533 1536 1539 1542 1544 1546 1547 1549 1550 1551 1551 1551 1552 1551 1551 1551 1550 1550 1549 1549 1548 1547 1546 1545 1544 1543 1542 1541 1540 1539 1538 1537 1537 1537 1537 1538 1538 1539 1540 1540 1539 1539 1539
1534 1536 1539 1542 1544 1546 1548 1549 1550 1551 1551 1551 1552 1552 1551 1550 1550 1550 1549 1549 1548 1547 1546 1545 1544 1543 1542 1540 1539 1538 1538 1537 1536 1536 1536 1536 1537 1538 1538 1538 1538 1538 1537
1533 1537 1539 1542 1544 1546 1548 1549 1550 1551 1551 1551 1551 1551 1551 1551 1550 1550 1549 1548 1548 1546 1545 1544 1543 1542 1541 1539 1538 1537 1537 1536 1536 1536 1536 1536 1538 1537 1537 1537 1537 1537 1536
1534 1538 1539 1542 1544 1547 1548 1549 1550 1550 1551 1551 1551 1551 1551 1551 1551 1550 1550 1549 1548 1546 1545 1543 1542 1541 1540 1538 1537 1537 1536 1536 1536 1537 1537 1537 1537 1537 1536 1536 1536 1536 1536
1533 1537 1539 1542 1544 1546 1548 1549 1550 1550 1551 1551 1552 1552 1551 1551 1550 1550 1549 1548 1547 1546 1545 1543 1542 1541 1539 1538 1537 1537 1536 1536 1536 1536 1537 1537 1537 1538 1536 1535 1535 1534 1534
1531 1535 1539 1541 1544 1546 1547 1549 1549 1550 1551 1551 1552 1552 1552 1551 1551 1550 1550 1549 1548 1546 1545 1543 1542 1540 1539 1538 1538 1537 1536 1536 1536 1536 1536 1536 1535 1536 1536 1534 1534 1533 1533
1532 1535 1538 1541 1543 1545 1547 1549 1549 1550 1551 1551 1552 1552 1552 1552 1551 1550 1550 1549 1548 1547 1545 1543 1542 1541 1540 1539 1538 1538 1538 1537 1537 1536 1537 1535 1534 1535 1536 1534 1533 1532 1531
1531 1535 1538 1540 1543 1545 1547 1549 1549 1550 1551 1551 1552 1553 1552 1552 1551 1551 1550 1549 1548 1547 1546 1544 1543 1541 1540 1539 1539 1539 1538 1538 1538 1537 1537 1535 1533 1533 1534 1534 1533 1531 1530
1530 1534 1537 1540 1542 1545 1547 1548 1549 1550 1550 1551 1552 1553 1553 1552 1552 1552 1550 1549 1548 1547 1546 1545 1544 1542 1541 1540 1540 1539 1539 1539 1538 1538 1537 1535 1533 1533 1533 1532 1532 1530 1529
1529 1532 1536 1539 1542 1544 1546 1548 1548 1549 1550 1551 1551 1552 1552 1552 1552 1552 1551 1550 1549 1548 1547 1546 1544 1543 1542 1541 1540 1540 1539 1540 1539 1539 1537 1535 1532 1532 1532 1531 1530 1529 1527
1528 1531 1535 1538 1541 1543 1546 1547 1548 1549 1550 1551 1551 1552 1552 1552 1552 1552 1551 1551 1550 1549 1547 1546 1545 1543 1542 1542 1541 1540 1540 1540 1539 1539 1538 1535 1533 1532 1531 1530 1529 1528 1526
1526 1530 1534 1537 1539 1541 1544 1546 1548 1549 1550 1550 1551 1552 1552 1552 1552 1552 1552 1551 1550 1550 1548 1547 1546 1544 1543 1542 1541 1540 1539 1540 1540 1539 1538 1536 1534 1533 1532 1531 1529 1527 1526
1525 1529 1533 1535 1537 1540 1543 1545 1547 1548 1549 1550 1551 1551 1552 1552 1551 1552 1552 1551 1550 1549 1548 1547 1546 1544 1543 1542 1541 1540 1539 1539 1539 1539 1537 1536 1534 1534 1532 1531 1529 1527 1526
1524 1527 1531 1534 1536 1538 1541 1544 1546 1547 1548 1549 1550 1550 1551 1551 1550 1551 1551 1550 1549 1548 1547 1546 1545 1543 1542 1541 1540 1539 1538 1538 1538 1537 1536 1536 1534 1533 1532 1531 1529 1527 1526
1521 1525 1529 1532 1536 1537 1541 1543 1545 1547 1548 1548 1549 1549 1549 1550 1550 1550 1550 1550 1548 1547 1546 1545 1543 1542 1541 1540 1539 1539 1537 1536 1536 1536 1535 1534 1534 1532 1531 1530 1528 1526 1526
1520 1523 1528 1531 1533 1536 1541 1542 1544 1545 1546 1547 1547 1548 1548 1548 1549 1549 1549 1548 1547 1546 1544 1543 1542 1540 1539 1539 1538 1536 1535 1535 1535 1535 1534 1533 1533 1532 1531 1529 1527 1526 1524
1514 1522 1526 1529 1531 1536 1539 1541 1542 1544 1545 1545 1545 1546 1547 1548 1548 1548 1547 1546 1545 1545 1543 1542 1541 1539 1538 1537 1536 1537 1534 1534 1533 1532 1531 1531 1531 1531 1530 1528 1526 1525 1523
1518 1521 1525 1526 1531 1532 1537 1539 1540 1542 1543 1543 1544 1545 1546 1546 1546 1545 1545 1544 1543 1542 1541 1540 1538 1537 1536 1535 1535 1535 1534 1533 1532 1530 1529 1528 1527 1527 1527 1526 1523 1522 1521
1518 1519 1522 1525 1529 1530 1535 1537 1538 1539 1540 1540 1542 1543 1543 1543 1543 1543 1542 1542 1541 1539 1538 1537 1535 1535 1534 1533 1532 1532 1530 1530 1529 1528 1525 1525 1525 1524 1522 1521 1520 1519 1517
1513 1515 1521 1524 1525 1529 1532 1533 1535 1537 1537 1538 1540 1541 1541 1541 1541 1540 1539 1538 1537 1536 1535 1534 1532 1531 1530 1530 1529 1528 1527 1527 1526 1525 1523 1521 1519 1519 1519 1517 1515 1513 1513